Weather History for KPSO - November, 2013

Change the Weather History Date:

Friday, November 1, 2013

  Actual Average (KDRO) Record (KDRO)
Temperature  
Mean Temperature 35 °F 41 °F  
Max Temperature 49 °F 56 °F - ()
Min Temperature 21 °F 26 °F - ()
Degree Days  
Heating Degree Days 30 24  
Month to date heating degree days 24  
Since 1 July heating degree days 812  
Cooling Degree Days 0 0  
Month to date cooling degree days 0  
Year to date cooling degree days 243  
Moisture  
Dew Point 24 °F    
Average Humidity 72    
Maximum Humidity 96    
Minimum Humidity 33    
Precipitation  
Precipitation 0.00 in 0.07 in - ()
Month to date precipitation 0.07  
Year to date precipitation 13.29  
Sea Level Pressure  
Sea Level Pressure 30.24 in    
Wind  
Wind Speed 1 mph (SW)    
Max Wind Speed 8 mph    
Max Gust Speed -    
Visibility 10 miles    
Events      
T = Trace of Precipitation, MM = Missing Value Source: NWS Daily Summary

Daily Weather History Graph

Daily Weather History Graph

Search for Another Location

Airport or City:

Trip Planner

Search our weather history database for the weather conditions in past years. The results will help you decide how hot, cold, wet, or windy it might be!

Date:

Astronomy

Nov. 01, 2013 Rise Set
Actual Time 7:33 AM MDT 6:09 PM MDT
Civil Twilight 7:06 AM MDT 6:36 PM MDT
Nautical Twilight 6:35 AM MDT 7:07 PM MDT
Astronomical Twilight 6:04 AM MDT 7:38 PM MDT
Moon 5:30 AM MDT (11/1) 5:03 PM MDT (11/1)
Length of Visible Light 11h 30m
Length of Day
10h 36m
Waning Crescent, 4% of the Moon is Illuminated
Nov 1
Waning Crescent
Nov 3
New
Nov 9
First Quarter
Nov 17
Full
Nov 25
Last Quarter

Hourly Weather History & Observations

Time (MDT) Temp. Windchill Dew Point Humidity Pressure Visibility Wind Dir Wind Speed Gust Speed Precip Events Conditions
12:15 AM 27.7 °F - 25.0 °F 90% 30.15 in 10.0 mi Calm Calm - N/A   Clear
12:35 AM 27.7 °F - 24.6 °F 88% 30.15 in 10.0 mi Calm Calm - N/A   Clear
12:55 AM 28.4 °F - 23.9 °F 83% 30.15 in 10.0 mi Calm Calm - N/A   Clear
1:15 AM 28.4 °F - 25.3 °F 88% 30.15 in 10.0 mi Calm Calm - N/A   Scattered Clouds
1:35 AM 27.7 °F - 23.4 °F 84% 30.15 in 10.0 mi Calm Calm - N/A   Clear
1:55 AM 27.9 °F - 23.7 °F 84% 30.16 in 10.0 mi Calm Calm - N/A   Clear
2:15 AM 27.0 °F - 24.4 °F 90% 30.16 in 10.0 mi Calm Calm - N/A   Clear
2:35 AM 27.7 °F - 23.5 °F 84% 30.15 in 10.0 mi Calm Calm - N/A   Clear
2:55 AM 25.5 °F - 23.5 °F 92% 30.15 in 10.0 mi Calm Calm - N/A   Clear
3:15 AM 27.3 °F - 24.1 °F 88% 30.15 in 10.0 mi Calm Calm - N/A   Clear
3:35 AM 25.0 °F - 23.4 °F 94% 30.16 in 10.0 mi Calm Calm - N/A   Clear
3:55 AM 24.8 °F - 23.5 °F 95% 30.16 in 10.0 mi Calm Calm - N/A   Scattered Clouds
4:15 AM 25.7 °F - 23.9 °F 93% 30.16 in 10.0 mi Calm Calm - N/A   Scattered Clouds
4:35 AM 24.8 °F - 23.2 °F 94% 30.16 in 10.0 mi Calm Calm - N/A   Scattered Clouds
4:55 AM 26.2 °F - 23.9 °F 91% 30.16 in 10.0 mi Calm Calm - N/A   Scattered Clouds
5:15 AM 23.5 °F - 22.1 °F 94% 30.17 in 10.0 mi Calm Calm - N/A   Clear
5:35 AM 24.6 °F - 23.0 °F 94% 30.18 in 10.0 mi Calm Calm - N/A   Clear
5:55 AM 23.7 °F - 22.6 °F 96% 30.18 in 10.0 mi Calm Calm - N/A   Clear
6:15 AM 23.0 °F - 22.1 °F 96% 30.19 in 10.0 mi Calm Calm - N/A   Clear
6:35 AM 23.9 °F - 22.8 °F 96% 30.19 in 10.0 mi Calm Calm - N/A   Clear
6:55 AM 23.0 °F - 21.6 °F 94% 30.19 in 10.0 mi Calm Calm - N/A   Clear
7:15 AM 23.4 °F - 22.5 °F 96% 30.20 in 10.0 mi Calm Calm - N/A   Clear
7:35 AM 24.1 °F - 22.6 °F 94% 30.20 in 10.0 mi Calm Calm - N/A   Clear
7:55 AM 21.7 °F - 20.5 °F 95% 30.22 in 10.0 mi Calm Calm - N/A   Clear
8:15 AM 23.2 °F - 22.3 °F 96% 30.22 in 10.0 mi Calm Calm - N/A   Clear
8:35 AM 25.9 °F - 24.4 °F 94% 30.24 in 10.0 mi Calm Calm - N/A   Clear
8:55 AM 28.9 °F - 23.7 °F 81% 30.25 in 10.0 mi Calm Calm - N/A   Clear
9:15 AM 30.6 °F - 24.3 °F 77% 30.26 in 10.0 mi Calm Calm - N/A   Clear
9:35 AM 32.0 °F - 24.1 °F 73% 30.26 in 10.0 mi Calm Calm - N/A   Clear
9:55 AM 33.1 °F - 24.3 °F 70% 30.27 in 10.0 mi Calm Calm - N/A   Clear
10:15 AM 33.8 °F - 24.1 °F 68% 30.26 in 10.0 mi Calm Calm - N/A   Clear
10:35 AM 35.6 °F - 24.3 °F 63% 30.26 in 10.0 mi Calm Calm - N/A   Clear
10:55 AM 36.9 °F - 24.3 °F 60% 30.26 in 10.0 mi Calm Calm - N/A   Clear
11:15 AM 38.3 °F - 23.9 °F 56% 30.25 in 10.0 mi Calm Calm - N/A   Clear
11:35 AM 39.4 °F - 23.2 °F 52% 30.26 in 10.0 mi Calm Calm - N/A   Clear
11:55 AM 40.3 °F 38.2 °F 23.4 °F 51% 30.26 in 10.0 mi SSW 3.5 mph - N/A   Clear
12:15 PM 41.4 °F 38.4 °F 25.0 °F 52% 30.26 in 10.0 mi South 4.6 mph - N/A   Clear
12:35 PM 43.2 °F 40.5 °F 23.5 °F 46% 30.26 in 10.0 mi SSW 4.6 mph - N/A   Clear
12:55 PM 44.1 °F 40.1 °F 21.9 °F 42% 30.25 in 10.0 mi SW 6.9 mph - N/A   Clear
1:15 PM 45.1 °F 42.8 °F 23.4 °F 42% 30.24 in 10.0 mi SSE 4.6 mph - N/A   Clear
1:35 PM 46.2 °F 42.7 °F 20.8 °F 37% 30.24 in 10.0 mi SSW 6.9 mph - N/A   Clear
1:55 PM 46.4 °F 43.5 °F 20.7 °F 36% 30.23 in 10.0 mi SW 5.8 mph - N/A   Clear
2:15 PM 47.1 °F - 19.9 °F 34% 30.23 in 10.0 mi SW 6.9 mph - N/A   Clear
3:55 PM 49.3 °F - 21.0 °F 33% 30.23 in 10.0 mi WSW 8.1 mph - N/A   Clear
4:15 PM 49.5 °F - 21.4 °F 33% 30.23 in 10.0 mi SW 4.6 mph - N/A   Clear
4:35 PM 49.5 °F - 22.5 °F 35% 30.23 in 10.0 mi SSW 8.1 mph - N/A   Clear
4:55 PM 49.1 °F - 21.7 °F 34% 30.24 in 10.0 mi WSW 6.9 mph - N/A   Clear
5:15 PM 48.9 °F - 23.0 °F 36% 30.25 in 10.0 mi SW 6.9 mph - N/A   Clear
5:35 PM 48.2 °F - 23.5 °F 38% 30.25 in 10.0 mi South 8.1 mph - N/A   Clear
5:55 PM 47.3 °F - 24.3 °F 40% 30.25 in 10.0 mi SSW 8.1 mph - N/A   Clear
6:15 PM 46.0 °F - 24.6 °F 43% 30.26 in 10.0 mi Calm Calm - N/A   Clear
6:35 PM 40.1 °F - 26.6 °F 59% 30.27 in 10.0 mi Calm Calm - N/A   Clear
6:55 PM 39.0 °F - 26.4 °F 61% 30.28 in 10.0 mi Calm Calm - N/A   Clear
7:15 PM 36.9 °F 34.3 °F 26.6 °F 66% 30.29 in 10.0 mi NNE 3.5 mph - N/A   Clear
7:35 PM 36.5 °F 33.9 °F 26.6 °F 67% 30.30 in 10.0 mi NNE 3.5 mph - N/A   Clear
7:55 PM 36.1 °F 33.5 °F 26.4 °F 68% 30.30 in 10.0 mi NE 3.5 mph - N/A   Clear
8:15 PM 35.6 °F 32.8 °F 26.1 °F 68% 30.31 in 10.0 mi NNE 3.5 mph - N/A   Clear
8:35 PM 34.7 °F 30.6 °F 25.9 °F 70% 30.32 in 10.0 mi NNE 4.6 mph - N/A   Clear
8:55 PM 34.3 °F - 25.3 °F 70% 30.32 in 10.0 mi Calm Calm - N/A   Clear
9:15 PM 32.4 °F - 25.3 °F 75% 30.33 in 10.0 mi Calm Calm - N/A   Clear
9:35 PM 32.0 °F - 25.2 °F 76% 30.33 in 10.0 mi Calm Calm - N/A   Clear
9:55 PM 31.8 °F - 25.7 °F 78% 30.34 in 10.0 mi Calm Calm - N/A   Clear
10:15 PM 29.7 °F - 25.3 °F 84% 30.34 in 10.0 mi Calm Calm - N/A   Clear
10:35 PM 28.4 °F - 24.6 °F 86% 30.35 in 10.0 mi Calm Calm - N/A   Clear
10:55 PM 28.6 °F - 24.4 °F 84% 30.35 in 10.0 mi Calm Calm - N/A   Clear
11:15 PM 31.6 °F - 24.6 °F 75% 30.36 in 10.0 mi Calm Calm - N/A   Clear
11:35 PM 30.0 °F - 24.6 °F 80% 30.36 in 10.0 mi Calm Calm - N/A   Clear
11:55 PM 29.1 °F - 25.5 °F 86% 30.36 in 10.0 mi Calm Calm - N/A   Clear